Tracking 31027 objects as of 19-Jul-2025
HD Live streaming from Space Station
objects crossing your sky now

STARLINK-30236

Track STARLINK-30236 now!
10-day predictions
STARLINK-30236 is classified as:


NORAD ID: 57300
Int'l Code: 2023-096L
Perigee: 565.8 km
Apogee: 566.7 km
Inclination: 43.0 °
Period: 95.8 minutes
Semi major axis: 6937 km
RCS: Unknown
Launch date: July 10, 2023
Source: United States (US)
Launch site: AIR FORCE EASTERN TEST RANGE (AFETR)
Your satellite tracking list
IRIDIUM 33 DEB
Track 1 satellite(s)




NASA's NSSDC Master Catalog

Two Line Element Set (TLE):
1 57300U 23096L   25199.86513002 -.00001500  00000-0 -96067-4 0  9996
2 57300  43.0040  53.7352 0000644 293.8291  66.2484 15.02515426112488
Source of the keplerian elements: AFSPC